TimePDT,TemperatureF,Dew PointF,Humidity,Sea Level PressureIn,VisibilityMPH,Wind Direction,Wind SpeedMPH,Gust SpeedMPH,PrecipitationIn,Events,Conditions,WindDirDegrees,DateUTC
12:15 AM,39.2,24.8,56,30.16,10.0,East,3.5,-,N/A,,Clear,90,2014-05-12 07:15:00
12:35 AM,39.2,24.8,56,30.16,10.0,Calm,Calm,-,N/A,,Clear,0,2014-05-12 07:35:00
12:55 AM,37.4,24.8,60,30.17,10.0,SE,6.9,-,N/A,,Clear,140,2014-05-12 07:55:00
1:15 AM,37.4,24.8,60,30.16,10.0,SE,5.8,-,N/A,,Clear,130,2014-05-12 08:15:00
1:35 AM,37.4,23.0,56,30.16,10.0,East,4.6,-,N/A,,Clear,90,2014-05-12 08:35:00
1:55 AM,35.6,23.0,60,30.16,10.0,NE,3.5,-,N/A,Rain,Light Rain,40,2014-05-12 08:55:00
2:15 AM,35.6,24.8,65,30.16,10.0,Calm,Calm,-,N/A,,Clear,0,2014-05-12 09:15:00
2:35 AM,35.6,23.0,60,30.15,10.0,Calm,Calm,-,N/A,,Clear,0,2014-05-12 09:35:00
2:55 AM,35.6,23.0,60,30.15,10.0,Calm,Calm,-,N/A,,Clear,0,2014-05-12 09:55:00
3:15 AM,35.6,23.0,60,30.15,10.0,SE,4.6,-,N/A,,Clear,130,2014-05-12 10:15:00
3:35 AM,35.6,23.0,60,30.15,10.0,Calm,Calm,-,N/A,,Clear,0,2014-05-12 10:35:00
3:55 AM,33.8,23.0,65,30.15,10.0,Calm,Calm,-,N/A,,Clear,0,2014-05-12 10:55:00
4:15 AM,33.8,23.0,65,30.15,10.0,SE,4.6,-,N/A,,Clear,140,2014-05-12 11:15:00
4:35 AM,32.0,23.0,69,30.15,10.0,SE,6.9,-,N/A,,Clear,140,2014-05-12 11:35:00
4:55 AM,35.6,23.0,60,30.16,10.0,SE,5.8,-,N/A,,Clear,130,2014-05-12 11:55:00
5:15 AM,32.0,23.0,69,30.16,10.0,ESE,5.8,-,N/A,,Clear,120,2014-05-12 12:15:00
5:35 AM,33.8,23.0,65,30.16,10.0,Calm,Calm,-,N/A,,Clear,0,2014-05-12 12:35:00
5:55 AM,32.0,21.2,64,30.16,9.0,Calm,Calm,-,N/A,,Clear,0,2014-05-12 12:55:00
6:15 AM,32.0,23.0,69,30.16,10.0,Calm,Calm,-,N/A,,Clear,0,2014-05-12 13:15:00
6:35 AM,33.8,23.0,65,30.17,9.0,Calm,Calm,-,N/A,,Clear,0,2014-05-12 13:35:00
7:15 AM,44.6,24.8,46,30.17,9.0,East,8.1,-,N/A,,Clear,100,2014-05-12 14:15:00
7:35 AM,55.4,23.0,29,30.18,10.0,ESE,11.5,-,N/A,,Clear,120,2014-05-12 14:35:00
7:55 AM,59.0,19.4,22,30.18,10.0,ESE,11.5,16.1,N/A,,Clear,110,2014-05-12 14:55:00
8:15 AM,60.8,19.4,20,30.19,10.0,ESE,11.5,-,N/A,,Clear,120,2014-05-12 15:15:00
8:35 AM,62.6,17.6,18,30.19,10.0,ESE,17.3,21.9,N/A,,Clear,110,2014-05-12 15:35:00
8:55 AM,64.4,17.6,16,30.20,10.0,East,16.1,24.2,N/A,,Clear,100,2014-05-12 15:55:00
9:15 AM,64.4,15.8,15,30.20,10.0,East,15.0,26.5,N/A,,Clear,100,2014-05-12 16:15:00
9:35 AM,64.4,15.8,15,30.20,10.0,East,16.1,24.2,N/A,,Clear,80,2014-05-12 16:35:00
9:55 AM,66.2,15.8,14,30.20,10.0,East,16.1,24.2,N/A,,Clear,100,2014-05-12 16:55:00
10:15 AM,66.2,15.8,14,30.20,9.0,East,15.0,21.9,N/A,,Clear,80,2014-05-12 17:15:00
10:35 AM,66.2,17.6,15,30.20,9.0,SE,15.0,23.0,N/A,,Clear,130,2014-05-12 17:35:00
10:55 AM,66.2,15.8,14,30.20,8.0,East,13.8,21.9,N/A,,Clear,90,2014-05-12 17:55:00
11:15 AM,68.0,17.6,15,30.21,9.0,ESE,9.2,17.3,N/A,,Clear,110,2014-05-12 18:15:00
11:35 AM,68.0,15.8,13,30.21,10.0,East,12.7,17.3,N/A,,Clear,90,2014-05-12 18:35:00
1:15 PM,69.8,17.6,14,30.20,9.0,SSE,6.9,-,N/A,,Clear,150,2014-05-12 20:15:00
1:35 PM,69.8,17.6,14,30.19,10.0,South,9.2,-,N/A,,Clear,190,2014-05-12 20:35:00
1:55 PM,71.6,12.2,10,30.19,9.0,Calm,Calm,-,N/A,,Clear,0,2014-05-12 20:55:00
2:15 PM,71.6,17.6,13,30.18,10.0,SSE,9.2,-,N/A,,Clear,150,2014-05-12 21:15:00
2:35 PM,71.6,15.8,12,30.18,10.0,ESE,8.1,-,N/A,,Clear,120,2014-05-12 21:35:00
2:55 PM,71.6,14.0,11,30.17,10.0,Calm,Calm,-,N/A,,Clear,0,2014-05-12 21:55:00
3:15 PM,73.4,17.6,12,30.16,9.0,NW,12.7,19.6,N/A,,Clear,310,2014-05-12 22:15:00
3:35 PM,73.4,19.4,13,30.16,10.0,NW,13.8,19.6,N/A,,Clear,310,2014-05-12 22:35:00
3:55 PM,73.4,19.4,13,30.16,10.0,NNW,17.3,-,N/A,,Clear,330,2014-05-12 22:55:00
4:15 PM,73.4,19.4,13,30.15,10.0,NW,13.8,20.7,N/A,,Clear,310,2014-05-12 23:15:00
4:35 PM,71.6,21.2,15,30.15,10.0,NNW,16.1,19.6,N/A,,Clear,330,2014-05-12 23:35:00
4:55 PM,71.6,21.2,15,30.15,10.0,NW,16.1,21.9,N/A,,Clear,320,2014-05-12 23:55:00
5:15 PM,71.6,21.2,15,30.15,10.0,NW,15.0,23.0,N/A,,Clear,320,2014-05-13 00:15:00
5:35 PM,71.6,21.2,15,30.15,10.0,NW,15.0,23.0,N/A,,Clear,310,2014-05-13 00:35:00
5:55 PM,69.8,21.2,16,30.15,10.0,NNW,15.0,20.7,N/A,,Clear,330,2014-05-13 00:55:00
6:15 PM,69.8,19.4,15,30.14,10.0,NW,16.1,21.9,N/A,,Clear,310,2014-05-13 01:15:00
6:35 PM,68.0,19.4,16,30.14,10.0,NW,13.8,18.4,N/A,,Clear,310,2014-05-13 01:35:00
6:55 PM,68.0,19.4,16,30.15,10.0,WNW,11.5,-,N/A,,Clear,300,2014-05-13 01:55:00
7:15 PM,66.2,19.4,17,30.16,10.0,NW,11.5,-,N/A,,Clear,310,2014-05-13 02:15:00
7:35 PM,64.4,17.6,16,30.16,10.0,NW,13.8,-,N/A,,Clear,310,2014-05-13 02:35:00
7:55 PM,64.4,19.4,18,30.16,10.0,WNW,8.1,-,N/A,,Clear,300,2014-05-13 02:55:00
8:15 PM,60.8,19.4,20,30.17,10.0,WNW,6.9,-,N/A,,Clear,290,2014-05-13 03:15:00
8:35 PM,59.0,19.4,22,30.18,10.0,West,3.5,-,N/A,,Clear,270,2014-05-13 03:35:00
8:55 PM,57.2,21.2,25,30.18,10.0,WSW,3.5,-,N/A,,Clear,240,2014-05-13 03:55:00
9:15 PM,55.4,21.2,26,30.19,10.0,Calm,Calm,-,N/A,,Clear,0,2014-05-13 04:15:00
9:35 PM,55.4,23.0,29,30.19,10.0,North,4.6,-,N/A,,Clear,10,2014-05-13 04:35:00
9:55 PM,53.6,23.0,30,30.20,10.0,North,4.6,-,N/A,,Clear,360,2014-05-13 04:55:00
10:15 PM,51.8,23.0,33,30.20,10.0,NNW,4.6,-,N/A,,Clear,340,2014-05-13 05:15:00
10:35 PM,53.6,23.0,30,30.21,10.0,North,3.5,-,N/A,,Clear,10,2014-05-13 05:35:00
11:15 PM,46.4,26.6,46,30.22,10.0,Calm,Calm,-,N/A,,Clear,0,2014-05-13 06:15:00
11:35 PM,46.4,24.8,43,30.22,10.0,East,3.5,-,N/A,,Clear,100,2014-05-13 06:35:00
11:55 PM,46.4,26.6,46,30.22,10.0,Calm,Calm,-,N/A,,Clear,0,2014-05-13 06:55:00